Location: *
(48.8489°N, 2.3218°E)
Time: 18:42:03
(UTC+00:00)

ALOS 2 - Pass Details

Date: 23 August 2019
Orbit: 630 x 632 km, 97.9° (Epoch: 17 October)

Event Time Altitude Azimuth Distance (km) Brightness Sun altitude
Exits shadow 23:45:32 31° 312° (NW) 1,110 4.1 -29.9°
Drops below altitude 10° 23:48:09 10° 335° (NNW) 2,026 6.0 -29.9°
Sets 23:50:27 0° 342° (NNW) 2,939 7.1 -29.9°
